Location: *
(51.1248°S, 108.4023°W)
Time: 04:52:37
(UTC+00:00)

PAYLOAD B - Pass Details

Date: 15 June 2021
Orbit: 849 x 871 km, 99.1° (Epoch: 31 July)

Event Time Altitude Azimuth Distance (km) Brightness Sun altitude
Rises 12:20:57 0° 23° (NNE) 3,450 7.7 -26.2°
Reaches altitude 10° 12:23:19 10° 23° (NNE) 2,517 7.0 -25.8°
Maximum altitude 12:28:55 79° 108° (ESE) 894 4.3 -24.9°
Enters shadow 12:32:43 22° 193° (SSW) 1,831 5.7 -24.3°
